| time (UTC) | temp F | wind direction | speed MPH | gust MPH | rain 1hr in | rain 24hr in | rain mn in | humidity % | barometer mb |
| 20260510093052 | 67 | 0 | 0.0 | 4.0 | 0.00 | 0.92 | 0.00 | 97 | 1013.8 |
| 20260510091555 | 67 | 0 | 0.0 | 4.0 | 0.00 | 0.92 | 0.00 | 97 | 1013.6 |
| 20260510090052 | 68 | 0 | 0.0 | 4.0 | 0.00 | 0.92 | 0.00 | 97 | 1013.9 |
| 20260510084559 | 67 | 0 | 0.0 | 3.0 | 0.00 | 0.92 | 0.00 | 97 | 1013.9 |
| 20260510083111 | 67 | 50 | 0.0 | 4.0 | 0.00 | 0.92 | 0.00 | 97 | 1013.9 |
| 20260510081605 | 67 | 0 | 0.0 | 2.0 | 0.00 | 0.92 | 0.00 | 97 | 1013.8 |
| 20260510080044 | 67 | 0 | 0.0 | 0.0 | 0.00 | 0.92 | 0.00 | 97 | 1013.9 |
| 20260510074542 | 67 | 0 | 0.0 | 0.0 | 0.00 | 0.92 | 0.00 | 97 | 1013.7 |
| 20260510073051 | 67 | 0 | 0.0 | 0.0 | 0.00 | 0.92 | 0.00 | 97 | 1013.6 |
| 20260510071547 | 67 | 0 | 0.0 | 0.0 | 0.00 | 0.92 | 0.00 | 97 | 1013.5 |
| 20260510070049 | 67 | 0 | 0.0 | 0.0 | 0.00 | 0.92 | 0.00 | 97 | 1013.6 |
| 20260510064547 | 67 | 0 | 0.0 | 0.0 | 0.00 | 0.92 | 0.00 | 97 | 1013.6 |
| 20260510063046 | 67 | 0 | 0.0 | 0.0 | 0.00 | 0.92 | 0.00 | 97 | 1013.5 |
| 20260510061556 | 67 | 0 | 0.0 | 0.0 | 0.00 | 0.92 | 0.00 | 97 | 1013.7 |
| 20260510060050 | 67 | 0 | 0.0 | 0.0 | 0.00 | 0.92 | 0.00 | 97 | 1013.6 |
| 20260510054546 | 67 | 0 | 0.0 | 0.0 | 0.00 | 0.92 | 0.00 | 97 | 1013.5 |
| 20260510053056 | 67 | 0 | 0.0 | 0.0 | 0.00 | 0.92 | 0.00 | 97 | 1013.7 |
| 20260510051551 | 67 | 0 | 0.0 | 0.0 | 0.00 | 0.92 | 0.00 | 97 | 1013.7 |
| 20260510050055 | 67 | 0 | 0.0 | 0.0 | 0.00 | 0.92 | 0.00 | 97 | 1013.7 |
| 20260510044548 | 68 | 0 | 0.0 | 2.0 | 0.00 | 0.92 | 0.92 | 97 | 1013.7 |
| 20260510043053 | 68 | 0 | 0.0 | 1.0 | 0.00 | 0.92 | 0.92 | 97 | 1013.7 |
| 20260510041552 | 68 | 0 | 0.0 | 2.0 | 0.00 | 0.92 | 0.92 | 97 | 1013.9 |
| 20260510040055 | 68 | 0 | 0.0 | 5.0 | 0.00 | 0.92 | 0.92 | 97 | 1013.5 |
| 20260510034558 | 68 | 242 | 1.0 | 4.0 | 0.00 | 0.92 | 0.92 | 97 | 1013.6 |
| 20260510033046 | 68 | 0 | 0.0 | 6.0 | 0.00 | 0.92 | 0.92 | 97 | 1013.9 |
| 20260510031600 | 68 | 0 | 1.0 | 5.0 | 0.00 | 0.92 | 0.92 | 97 | 1013.6 |
| 20260510030052 | 68 | 166 | 1.0 | 6.0 | 0.00 | 0.92 | 0.92 | 97 | 1013.8 |
| 20260510024548 | 68 | 153 | 0.0 | 3.0 | 0.00 | 0.92 | 0.92 | 97 | 1014.0 |
| 20260510023049 | 68 | 0 | 0.0 | 3.0 | 0.00 | 0.92 | 0.92 | 97 | 1013.8 |
| 20260510021547 | 68 | 0 | 0.0 | 3.0 | 0.00 | 0.92 | 0.92 | 97 | 1013.6 |
| 20260510020047 | 68 | 0 | 0.0 | 4.0 | 0.00 | 0.92 | 0.92 | 97 | 1013.8 |
| 20260510014552 | 68 | 0 | 0.0 | 4.0 | 0.00 | 0.92 | 0.92 | 97 | 1013.9 |
| 20260510013050 | 68 | 0 | 0.0 | 6.0 | 0.00 | 0.92 | 0.92 | 97 | 1013.4 |
| 20260510011546 | 68 | 0 | 0.0 | 4.0 | 0.00 | 0.92 | 0.92 | 97 | 1013.5 |
| 20260510010048 | 68 | 0 | 0.0 | 4.0 | 0.00 | 0.92 | 0.92 | 97 | 1013.6 |
| 20260510004551 | 69 | 98 | 0.0 | 2.0 | 0.00 | 0.92 | 0.92 | 97 | 1013.5 |
| 20260510003051 | 69 | 0 | 0.0 | 1.0 | 0.00 | 0.92 | 0.92 | 97 | 1013.6 |
| 20260510001554 | 69 | 0 | 0.0 | 1.0 | 0.00 | 0.92 | 0.92 | 97 | 1013.5 |
| 20260510000044 | 68 | 0 | 0.0 | 2.0 | 0.00 | 0.92 | 0.92 | 97 | 1013.0 |
| 20260509234541 | 68 | 0 | 0.0 | 4.0 | 0.00 | 0.92 | 0.92 | 97 | 1012.8 |
| 20260509233043 | 68 | 0 | 0.0 | 3.0 | 0.00 | 0.92 | 0.92 | 97 | 1012.4 |
| 20260509231555 | 68 | 0 | 0.0 | 3.0 | 0.01 | 0.92 | 0.92 | 97 | 1012.3 |
| 20260509230047 | 68 | 0 | 0.0 | 2.0 | 0.01 | 0.92 | 0.92 | 97 | 1012.3 |
| 20260509224550 | 68 | 46 | 0.0 | 3.0 | 0.02 | 0.92 | 0.92 | 97 | 1012.1 |
| 20260509223052 | 68 | 40 | 0.0 | 6.0 | 0.07 | 0.92 | 0.92 | 97 | 1011.1 |
| 20260509221551 | 68 | 0 | 0.0 | 4.0 | 0.15 | 0.91 | 0.91 | 97 | 1011.6 |
| 20260509220055 | 68 | 0 | 0.0 | 5.0 | 0.18 | 0.91 | 0.91 | 97 | 1011.9 |
| 20260509214545 | 68 | 128 | 0.0 | 4.0 | 0.20 | 0.93 | 0.90 | 97 | 1012.1 |
| 20260509213053 | 68 | 74 | 0.0 | 3.0 | 0.16 | 0.87 | 0.84 | 97 | 1012.5 |
| 20260509211549 | 68 | 159 | 1.0 | 6.0 | 0.09 | 0.79 | 0.76 | 97 | 1012.2 |
| 20260509210052 | 68 | 78 | 0.0 | 4.0 | 0.08 | 0.76 | 0.73 | 97 | 1012.4 |
| 20260509204553 | 68 | 0 | 1.0 | 7.0 | 0.10 | 0.93 | 0.70 | 97 | 1012.8 |
| 20260509203050 | 68 | 70 | 1.0 | 8.0 | 0.19 | 0.91 | 0.68 | 97 | 1013.1 |
| 20260509201545 | 68 | 0 | 0.0 | 3.0 | 0.18 | 0.90 | 0.67 | 97 | 1012.7 |
| 20260509200101 | 68 | 0 | 0.0 | 10.0 | 0.17 | 0.88 | 0.65 | 97 | 1012.8 |
| 20260509194557 | 68 | 61 | 2.0 | 7.0 | 0.13 | 0.97 | 0.58 | 97 | 1013.1 |
| 20260509193053 | 68 | 0 | 0.0 | 5.0 | 0.15 | 0.87 | 0.49 | 97 | 1013.1 |
| 20260509191547 | 68 | 93 | 0.0 | 6.0 | 0.17 | 0.87 | 0.49 | 97 | 1012.6 |
| 20260509190054 | 68 | 0 | 1.0 | 9.0 | 0.20 | 0.86 | 0.48 | 97 | 1012.6 |
| 20260509184633 | 67 | 140 | 1.0 | 8.0 | 0.20 | 1.09 | 0.45 | 97 | 1012.7 |
| 20260509183058 | 67 | 53 | 1.0 | 8.0 | 0.14 | 0.98 | 0.34 | 96 | 1012.6 |
| 20260509181548 | 67 | 144 | 1.0 | 8.0 | 0.30 | 0.96 | 0.32 | 96 | 1013.1 |
| 20260509180100 | 67 | 52 | 1.0 | 5.0 | 0.26 | 0.92 | 0.28 | 96 | 1013.3 |
| 20260509174549 | 67 | 69 | 1.0 | 7.0 | 0.23 | 0.99 | 0.25 | 96 | 1013.3 |
| 20260509173054 | 67 | 0 | 0.0 | 12.0 | 0.19 | 0.93 | 0.19 | 95 | 1012.6 |
| 20260509171546 | 67 | 51 | 1.0 | 4.0 | 0.02 | 0.76 | 0.02 | 95 | 1013.0 |
| 20260509170058 | 68 | 0 | 0.0 | 6.0 | 0.02 | 0.76 | 0.02 | 95 | 1013.2 |
| 20260509164551 | 68 | 0 | 0.0 | 4.0 | 0.02 | 0.92 | 0.02 | 95 | 1012.9 |
| 20260509163105 | 69 | 0 | 2.0 | 11.0 | 0.00 | 0.90 | 0.00 | 95 | 1013.0 |
| 20260509161547 | 68 | 0 | 1.0 | 13.0 | 0.00 | 0.90 | 0.00 | 95 | 1013.1 |
| 20260509160049 | 68 | 54 | 3.0 | 11.0 | 0.00 | 0.90 | 0.00 | 95 | 1013.3 |
| 20260509154546 | 69 | 120 | 1.0 | 7.0 | 0.00 | 1.03 | 0.00 | 96 | 1013.3 |
| 20260509153044 | 68 | 0 | 1.0 | 5.0 | 0.00 | 1.03 | 0.00 | 96 | 1013.3 |
| 20260509151555 | 67 | 9 | 1.0 | 10.0 | 0.00 | 1.03 | 0.00 | 96 | 1013.0 |
| 20260509150054 | 67 | 0 | 0.0 | 7.0 | 0.00 | 1.03 | 0.00 | 96 | 1013.2 |
| 20260509144549 | 67 | 113 | 1.0 | 9.0 | 0.00 | 1.22 | 0.00 | 96 | 1013.0 |
| 20260509143050 | 67 | 62 | 3.0 | 14.0 | 0.00 | 1.22 | 0.00 | 96 | 1012.8 |
| 20260509141555 | 68 | 72 | 7.0 | 12.0 | 0.00 | 1.22 | 0.00 | 96 | 1012.6 |
| 20260509140057 | 68 | 76 | 1.0 | 9.0 | 0.00 | 1.22 | 0.00 | 96 | 1012.8 |
| 20260509134545 | 68 | 46 | 1.0 | 5.0 | 0.00 | 1.22 | 0.00 | 96 | 1012.6 |
| 20260509133048 | 68 | 49 | 2.0 | 8.0 | 0.00 | 1.22 | 0.00 | 96 | 1012.4 |
| 20260509131548 | 69 | 0 | 2.0 | 9.0 | 0.00 | 1.22 | 0.00 | 96 | 1012.4 |
| 20260509130051 | 71 | 0 | 2.0 | 8.0 | 0.00 | 1.22 | 0.00 | 96 | 1012.4 |
| 20260509124558 | 72 | 49 | 1.0 | 5.0 | 0.00 | 1.22 | 0.00 | 96 | 1012.6 |
| 20260509123054 | 72 | 0 | 0.0 | 3.0 | 0.00 | 1.22 | 0.00 | 96 | 1012.1 |
| 20260509121551 | 72 | 0 | 0.0 | 1.0 | 0.00 | 1.22 | 0.00 | 97 | 1011.9 |
| 20260509120048 | 72 | 5 | 0.0 | 0.0 | 0.00 | 1.22 | 0.00 | 97 | 1011.9 |
| 20260509114550 | 72 | 0 | 0.0 | 0.0 | 0.00 | 1.22 | 0.00 | 96 | 1011.9 |
| 20260509113106 | 72 | 0 | 0.0 | 0.0 | 0.00 | 1.22 | 0.00 | 96 | 1011.8 |
| 20260509111549 | 72 | 0 | 0.0 | 0.0 | 0.00 | 1.22 | 0.00 | 96 | 1011.5 |
| 20260509110048 | 72 | 0 | 0.0 | 0.0 | 0.00 | 1.22 | 0.00 | 97 | 1011.3 |
| 20260509104556 | 72 | 0 | 0.0 | 0.0 | 0.00 | 1.22 | 0.00 | 96 | 1010.9 |
| 20260509103055 | 72 | 0 | 0.0 | 0.0 | 0.00 | 1.22 | 0.00 | 96 | 1011.1 |
| 20260509101549 | 72 | 0 | 0.0 | 0.0 | 0.00 | 1.22 | 0.00 | 96 | 1010.8 |
| 20260509100109 | 71 | 0 | 0.0 | 0.0 | 0.00 | 1.22 | 0.00 | 96 | 1010.7 |
| 20260509094554 | 71 | 0 | 0.0 | 0.0 | 0.00 | 1.22 | 0.00 | 96 | 1010.5 |